Weather History for Minneapolis, MN

Change the Weather History Date:

Friday, February 7, 2014

  Actual Average Record
Temperature  
Mean Temperature 4 °F 18 °F  
Max Temperature 12 °F 27 °F 53 °F (1987)
Min Temperature -5 °F 10 °F -29 °F (1875)
Degree Days  
Heating Degree Days 61 47  
Month to date heating degree days 426 333  
Since 1 July heating degree days 5311 4887  
Cooling Degree Days 0 0  
Month to date cooling degree days 0 0  
Year to date cooling degree days 0 0  
Moisture  
Dew Point -6 °F    
Average Humidity 63    
Maximum Humidity 79    
Minimum Humidity 46    
Precipitation  
Precipitation 0.00 in 0.02 in 0.94 in (1928)
Month to date precipitation T 0.16  
Year to date precipitation 1.42 1.06  
Snow  
Snow 0.00 in 0.30 in 3.00 in (1892)
Month to date snowfall T 2.0  
Since 1 July snowfall 39.7 36.0  
Snow Depth 13.00 in    
Sea Level Pressure  
Sea Level Pressure 30.24 in    
Wind  
Wind Speed 9 mph (SW)    
Max Wind Speed 17 mph    
Max Gust Speed 24 mph    
Visibility 10 miles    
Events      
T = Trace of Precipitation, MM = Missing Value Source: NWS Daily Summary

Daily Weather History Graph

Daily Weather History Graph

Search for Another Location

Airport:

Trip Planner

Search our weather history database for the weather conditions in past years. The results will help you decide how hot, cold, wet, or windy it might be!

Date:

Astronomy

Feb. 07, 2014 Rise Set
Actual Time 7:24 AM CST 5:29 PM CST
Civil Twilight 6:54 AM CST 6:00 PM CST
Nautical Twilight 6:19 AM CST 6:35 PM CST
Astronomical Twilight 5:45 AM CST 7:09 PM CST
Moon 11:38 AM CST (2/7) 1:43 AM CST (2/7)
Length of Visible Light 11h 06m
Length of Day
10h 04m
First Quarter, 59% of the Moon is Illuminated
Feb 7
First Quarter
Feb 14
Full
Feb 22
Last Quarter
Mar 1
New
Mar 8
First Quarter

Hourly Weather History & Observations

Time (CST) Temp. Windchill Dew Point Humidity Pressure Visibility Wind Dir Wind Speed Gust Speed Precip Events Conditions
12:53 AM -2.0 °F -17.7 °F -8.0 °F 76% 30.28 in 10.0 mi WSW 9.2 mph - N/A   Clear
1:53 AM -2.0 °F -16.6 °F -8.0 °F 76% 30.27 in 10.0 mi WSW 8.1 mph - N/A   Clear
2:53 AM -2.9 °F -18.8 °F -9.0 °F 75% 30.27 in 10.0 mi WSW 9.2 mph - N/A   Clear
3:53 AM -2.9 °F -18.8 °F -9.9 °F 72% 30.26 in 10.0 mi SW 9.2 mph - N/A   Clear
4:53 AM -4.0 °F -19.0 °F -9.9 °F 76% 30.25 in 10.0 mi WSW 8.1 mph - N/A   Clear
5:53 AM -4.0 °F -20.2 °F -11.0 °F 72% 30.25 in 10.0 mi SW 9.2 mph - N/A   Clear
6:53 AM -5.1 °F -20.4 °F -11.0 °F 76% 30.24 in 10.0 mi SW 8.1 mph - N/A   Clear
7:53 AM -5.1 °F -20.4 °F -11.0 °F 76% 30.25 in 10.0 mi SW 8.1 mph - N/A   Clear
8:53 AM -2.0 °F -18.7 °F -11.0 °F 66% 30.25 in 10.0 mi SW 10.4 mph - N/A   Clear
9:53 AM -0.0 °F -18.7 °F -9.9 °F 63% 30.25 in 10.0 mi SW 13.8 mph 24.2 mph N/A   Clear
10:53 AM 3.9 °F -12.2 °F -9.9 °F 53% 30.25 in 10.0 mi WSW 11.5 mph 23.0 mph N/A   Clear
11:53 AM 5.0 °F -13.0 °F -8.0 °F 55% 30.25 in 10.0 mi SW 15.0 mph - N/A   Clear
12:53 PM 8.1 °F -9.0 °F -7.1 °F 50% 30.23 in 10.0 mi SW 15.0 mph 23.0 mph N/A   Clear
1:53 PM 10.9 °F -4.7 °F -6.0 °F 47% 30.22 in 10.0 mi WSW 13.8 mph - N/A   Clear
2:53 PM 12.0 °F -3.4 °F -5.1 °F 46% 30.22 in 10.0 mi SW 13.8 mph - N/A   Clear
3:53 PM 12.0 °F -4.0 °F -4.0 °F 49% 30.22 in 10.0 mi WSW 15.0 mph 19.6 mph N/A   Clear
4:53 PM 10.9 °F -2.6 °F -4.0 °F 51% 30.22 in 10.0 mi WSW 10.4 mph - N/A   Clear
5:53 PM 10.0 °F 1.8 °F -4.0 °F 53% 30.22 in 10.0 mi SW 4.6 mph - N/A   Clear
6:53 PM 9.0 °F 0.6 °F -2.9 °F 59% 30.23 in 10.0 mi SSW 4.6 mph - N/A   Clear
7:53 PM 8.1 °F -0.5 °F -2.0 °F 64% 30.23 in 10.0 mi SSW 4.6 mph - N/A   Clear
8:53 PM 8.1 °F -2.0 °F -0.9 °F 67% 30.22 in 10.0 mi SSW 5.8 mph - N/A   Clear
9:53 PM 7.0 °F -4.5 °F -0.0 °F 73% 30.22 in 10.0 mi SSW 6.9 mph - N/A   Clear
10:53 PM 7.0 °F -4.5 °F -0.0 °F 73% 30.22 in 10.0 mi SSW 6.9 mph - N/A   Clear
11:53 PM 6.1 °F -4.3 °F -0.0 °F 76% 30.22 in 10.0 mi SSW 5.8 mph - N/A   Clear